SCP
0 0 0 0 0 0 0 0 0 0 0 0 0 0 0 0 0 0 0 0 0 0 0 0 0 0 0 0 0 0 0 0 0 0 0 0 0 0 0 0 0 0 0 0 0 0 0 0 0 0 0 0 0 0
0 0 0 0 0 0 0 0 0 0 0 0 0 0 0 0 0 0 0 0 0 0 0 0 0 0 0 0 0 0 0 0 0 0 0 0 0 0 0 0 0 0 0 0 0 0 0 0 0 0 0 0 0 0
0 0 0 0 0 0 0 0 0 0 0 0 0 0 0 0 0 0 0 0 0 0 0 0 0 0 0 0 0 0 0 0 0 0 0 0 0 0 0 0 0 0 0 0 0 0 0 0 0 0 0 0 0 0
0 0 0 0 0 0 0 0 0 0 0 0 0 0 0 0 0 0 0 0 0 0 0 0 0 0 0 0 0 0 0 0 0 0 0 0 0 0 0 0 0 0 0 0 0 0 0 0 0 0 0 0 0 0
0 0 0 0 0 0 0 0 0 0 0 0 0 0 0 0 0 0 0 0 0 0 0 0 0 0 0 0 0 0 0 0 0 0 0 0 0 0 0 0 0 0 0 0 0 0 0 0 0 0 0 0 0 0
0 0 0 0 0 0 0 0 0 0 0 0 0 0 0 0 0 0 0 0 0 0 0 0 0 0 0 0 0 0 0 0 0 0 0 0 0 0 0 0 0 0 0 0 0 0 0 0 0 0 0 0 0 0
0 0 0 0 0 0 0 0 0 0 0 0 0 0 0 0 0 0 0 0 0 0 0 0 0 0 0 0 0 0 0 0 0 0 0 0 0 0 0 0 0 0 0 0 0 0 0 0 0 0 0 0 0 0
0 0 0 0 0 0 0 0 0 0 0 0 0 0 0 0 0 0 0 0 0 0 0 0 0 0 0 0 0 0 0 0 0 0 0 0 0 0 0 0 0 0 0 0 0 0 0 0 0 0 0 0 0 0
0 0 0 0 0 0 0 0 0 0 0 0 0 0 0 0 0 0 0 0 0 0 0 0 0 0 0 0 0 0 0 0 0 0 0 0 0 0 0 0 0 0 0 0 0 0 0 0 0 0 0 0 0 0
-0 0 0 0 0 0 0 0 0 0 0 0 0 0 0 0 0 0 0 0 0 0 0 0 0 0 0 0 0 0 0 0 0 0 0 0 0 0 0 0 0 0 0 0 0 0 0 0 0 0 0 0 0 0
0 0 0 0 0 0 0 0 0 0 0 0 0 0 0 0 0 0 0 0 0 0 0 0 0 0 0 0 0 0 0 0 0 0 0 0 0 0 0 0 0 0 0 0 0 0 0 0 0 0 0 0 0 0
0 0 0 0 0 0 0 0 0 0 0 0 0 0 0 0 0 0 0 0 0 0 0 0 0 0 0 0 0 0 0 0 0 0 0 0 0 0 0 0 0 0 0 0 0 0 0 0 0 0 0 0 0 0
0 0 0 0 0 0 0 0 0 0 0 0 0 0 0 0 0 0 0 0 0 0 0 0 0 0 0 0 0 0 0 0 0 0 0 0 0 0 0 0 0 0 0 0 0 0 0 0 0 0 0 0 0 0
0 0 0 0 0 0 0 0 0 0 0 0 0 0 0 0 0 0 0 0 0 0 0 0 0 0 0 0 0 0 0 0 0 0 0 0 0 0 0 0 0 0 0 0 0 0 0 0 0 0 0 0 0 0
0 0 0 0 0 0 0 0 0 0 0 0 0 0 0 0 0 0 0 0 0 0 0 0 0 0 0 0 0 0 0 0 0 0 0 0 0 0 0 0 0 0 0 0 0 0 0 0 0 0 0 0 0 0
0 0 0 0 0 0 0 0 0 0 0 0 0 0 0 0 0 0 0 0 0 0 0 0 0 0 0 0 0 0 0 0 0 0 0 0 0 0 0 0 0 0 0 0 0 0 0 0 0 0 0 0 0 0
0 0 0 0 0 0 0 0 0 0 0 0 0 0 0 0 0 0 0 0 0 0 0 0 0 0 0 0 0 0 0 0 0 0 0 0 0 0 0 0 0 0 0 0 0 0 0 0 0 0 0 0 0 0
0 0 0 0 0 0 0 0 0 0 0 0 0 0 0 0 0 0 0 0 0 0 0 0 0 0 0 0 0 0 0 0 0 0 0 0 0 0 0 0 0 0 0 0 0 0 0 0 0 0 0 0 0 0
0 0 0 0 0 0 0 0 0 0 0 0 0 0 0 0 0 0 0 0 0 0 0 0 0 0 0 0 0 0 0 0 0 0 0 0 0 0 0 0 0 0 0 0 0 0 0 0 0 0 0 0 0 0
0 0 0 0 0 0 0 0 0 0 0 0 0 0 0 0 0 0 0 0 0 0 0 0 0 0 0 0 0 0 0 0 0 0 0 0 0 0 0 0 0 0 0 0 0 0 0 0 0 0 0 0 0 0
0 0 0 0 0 0 0 0 0 0 0 0 0 0 0 0 0 0 0 0 0 0 0 0 0 0 0 0 0 0 0 0 0 0 0 0 0 0 0 0 0 0 0 0 0 0 0 0 0 0 0 0 0 0
0 0 0 0 0 0 0 0 0 0 0 0 0 0 0 0 0 0 0 0 0 0 0 0 0 0 0 0 0 0 0 0 0 0 0 0 0 0 0 0 0 0 0 0 0 0 0 0 0 0 0 0 0 0
0 0 0 0 0 0 0 0 0 0 0 0 0 0 0 0 0 0 0 0 0 0 0 0 0 0 0 0 0 0 0 0 0 0 0 0 0 0 0 0 0 0 0 0 0 0 0 0 0 0 0 0 0 0
0 0 0 0 0 0 0 0 0 0 0 0 0 0 0 -0 -0 0 0 0 0 0 0 0 0 0 0 0 0 0 0 0 0 0 0 0 0 0 0 0 0 0 0 0 0 0 0 0 0 0 0 0 0 0
0 0 0 0 0 0 0 0 0 0 0 0 0 -0 -0 0 -0 0 0 0 0 0 0 0 0 0 -0 0 0 0 0 0 0 0 0 0 0 0 0 0 0 0 0 0 0 0 0 0 0 0 0 0 0 0
0 0 0 0 0 0 0 0 0 0 0 0 0 0 -0 -0 0 -0 0 0 0 0 0 0 -0 -0 -0 0 0 0 0 0 0 0 0 0 0 0 0 0 0 0 0 0 0 0 0 0 0 0 0 0 0 0
0 0 0 0 0 0 0 0 0 0 0 -0 -0 -0 0 0 0 0 0 0 0 0 -0 -0 -0 -0 -0 -0 0 0 0 0 0 0 0 0 0 0 0 0 0 0 0 0 0 0 0 0 0 0 0 0 0 0
0 0 0 0 0 0 0 0 0 0 0 -0 0 0 0 0 0 0 0 0 -0 -0 -0 -0 0 0 -0 0 0 -0 -0 0 0 0 0 0 0 0 0 0 0 0 0 0 0 0 0 0 0 0 0 0 0 0
0 0 0 0 0 0 0 0 0 0 0 0 0 0 0 0 -0 -0 -0 -0 -0 -0 0 0 0 -0 0 0 0 0 0 0 -0 -0 -0 0 0 0 0 0 0 0 0 0 0 0 -0 -0 0 0 0 0 0 0
0 0 0 0 0 0 0 0 0 0 0 0 0 0 0 0 0 -0 -0 0 0 0 0 0 -0 0 0 0 0 0 0 0 -0 0 0 0 0 0 0 0 0 0 0 0 0 0 -0 0 0 0 0 0 0 0
0 0 0 0 0 0 0 0 0 0 0 0 0 0 0 0 0 0 0 0 0 0 0 0 0 0 -0 -0 0 -0 -0 0 -0 0 0 0 0 0 0 0 0 0 0 0 0 0 0 0 0 0 0 0 0 0
0 0 0 0 0 0 0 0 0 0 0 0 0 0 0 0 0 0 0 0 0 0 -0 -0 -0 -0 -0 -0 -0 0 0 0 0 0 0 0 -0 -0 0 0 0 0 0 0 0 0 0 0 0 0 0 0 0 0
0 0 0 0 0 0 0 0 0 0 0 0 0 -0 -0 0 0 0 0 0 0 0 0 -0 -0 -0 -0 0 0 0 0 0 0 0 0 0 -0 0 0 0 0 0 0 0 0 0 0 0 0 0 -0 0 0 0
Wind_Speed_500mb
54 52 54 44 43 44 44 43 43 40 36 34 32 28 23 19 18 17 21 20 17 9 8 3 4 3 3 5 5 7 5 5 8 8 6 6 5 6 2 7 11 14 11 7 5 4 11 12 11 11 10 4 2 3
49 42 38 39 40 40 41 41 40 38 35 33 31 27 23 20 17 21 24 22 17 13 12 15 11 7 3 5 6 7 4 1 2 8 1 6 3 4 6 5 4 4 11 9 15 11 5 22 8 14 6 7 4 9
44 38 36 34 32 33 37 38 38 38 35 32 29 26 23 20 19 26 21 22 16 15 29 36 25 15 8 7 3 1 1 1 1 3 9 4 5 7 6 9 3 7 7 4 3 4 9 11 14 11 10 7 10 6
40 37 35 32 29 28 32 35 36 36 34 31 29 26 23 22 21 26 21 20 22 7 5 3 25 31 22 14 4 2 10 5 5 2 4 4 5 11 8 6 7 7 1 5 2 5 11 15 13 16 11 7 5 3
38 35 31 29 26 24 25 28 34 34 32 30 28 26 24 23 23 27 21 19 17 7 5 8 8 20 22 11 7 6 11 15 6 1 4 5 4 6 5 4 4 11 11 8 11 13 9 14 15 12 8 5 9 3
39 35 31 27 22 21 19 24 31 31 29 28 26 25 24 23 23 28 11 20 17 10 7 3 5 15 25 19 10 6 6 7 9 7 5 6 3 3 5 8 16 17 9 12 10 18 12 13 14 14 13 11 8 5
38 33 33 28 23 21 18 21 26 27 28 26 25 24 23 23 28 23 7 11 30 17 6 6 7 14 29 22 10 11 12 5 4 7 8 5 6 9 5 10 10 30 15 19 23 26 19 21 20 23 18 13 7 4
41 34 31 27 23 19 15 19 21 23 26 24 23 21 20 21 25 20 8 9 21 18 8 3 8 7 31 12 10 12 11 13 8 5 5 8 7 7 6 21 31 45 21 28 32 35 28 33 27 20 13 8 2 8
36 49 30 26 24 20 17 17 19 21 22 21 20 18 16 17 14 22 14 11 19 9 5 5 8 8 26 14 10 13 11 2 5 7 8 13 2 8 17 27 29 33 42 35 34 37 40 33 26 17 9 5 4 10
31 36 40 27 22 21 21 21 20 21 23 25 29 9 9 19 21 24 11 7 10 11 8 8 6 5 14 16 12 11 6 6 4 9 14 5 8 34 23 23 10 18 28 45 50 39 37 32 24 18 9 7 8 17
29 35 29 25 23 22 22 22 22 25 31 26 9 6 23 29 18 10 6 6 8 4 11 12 19 5 9 7 8 15 7 6 5 8 10 4 7 17 33 46 34 16 14 43 42 38 32 27 25 14 3 8 19 30
25 29 30 23 21 22 22 23 28 32 16 17 21 25 21 7 5 6 4 3 6 10 11 11 18 23 7 9 6 10 7 3 11 10 6 5 10 29 12 18 32 32 45 44 45 43 36 25 13 1 10 21 28 29
28 35 30 24 18 19 22 25 29 25 33 22 9 8 5 3 6 10 10 6 4 4 0 9 5 17 10 9 5 4 7 10 5 3 8 9 9 8 20 22 31 51 57 53 47 37 27 17 5 9 17 21 23 27
24 27 28 24 24 21 20 26 26 30 9 6 6 3 5 2 6 7 4 1 9 11 16 17 13 9 7 6 6 7 8 3 4 2 10 4 13 8 16 30 60 65 61 53 43 33 21 9 1 7 12 27 24 31
22 28 31 33 27 22 21 27 25 19 5 5 4 6 5 4 6 11 17 14 8 14 6 9 10 6 3 5 6 2 4 9 10 8 4 21 11 14 35 58 67 62 54 47 36 24 17 8 5 6 9 15 18 27
34 34 36 32 27 23 25 24 16 11 6 4 3 3 4 5 10 6 7 7 8 8 3 4 4 4 5 5 6 11 5 8 3 4 13 16 5 24 40 52 55 50 41 30 18 12 8 4 2 9 12 16 22 27
31 25 26 25 24 28 25 24 11 6 2 2 3 7 12 8 10 9 3 10 11 5 4 5 3 2 8 3 5 5 3 4 7 11 14 21 27 39 47 43 37 27 25 26 17 3 1 4 4 15 18 12 20 26
19 27 24 23 27 29 26 10 7 8 5 7 5 4 11 14 13 5 6 7 7 4 3 4 7 6 3 4 4 2 9 10 11 13 17 15 8 19 28 32 31 26 14 11 10 12 10 4 12 11 11 12 18 26
27 29 23 46 36 16 9 13 5 4 12 7 12 16 16 15 15 20 15 13 14 9 19 12 5 4 3 2 5 10 8 5 4 10 7 5 8 4 12 23 27 16 7 19 15 18 13 11 16 12 13 15 22 31
32 32 34 32 19 5 7 7 9 6 6 5 10 13 10 9 13 18 16 17 24 16 9 7 10 13 20 21 14 2 17 16 12 6 7 4 5 4 4 21 19 4 10 16 16 15 15 17 19 14 21 25 32 40
25 28 28 29 5 3 4 6 9 6 5 6 8 7 7 14 20 20 19 19 24 10 11 17 22 21 21 25 27 27 31 38 32 29 27 19 22 16 8 13 11 31 17 19 15 22 20 17 17 26 30 34 37 39
24 23 17 6 1 2 2 3 4 10 6 8 9 8 10 7 9 20 21 19 22 39 37 40 44 47 49 50 48 48 45 41 41 41 40 39 39 40 42 38 35 35 32 29 34 27 22 25 28 30 28 31 34 31
15 7 4 4 3 2 2 2 3 4 2 7 11 5 6 7 9 13 10 15 25 32 36 42 45 48 49 48 44 41 39 42 45 46 45 45 48 47 48 48 47 49 50 48 42 45 42 35 23 24 26 27 25 22
4 4 3 3 2 4 3 3 3 4 6 5 3 6 5 8 5 8 6 5 5 9 14 11 7 14 14 14 13 15 11 16 21 30 39 42 47 49 49 49 49 48 43 39 39 35 34 28 25 25 24 22 18 11
4 1 1 3 2 2 2 3 3 2 5 5 3 6 8 6 1 4 3 6 10 16 18 18 24 32 34 38 37 40 44 51 51 50 43 30 32 39 46 48 48 53 50 46 43 41 40 34 33 29 25 23 17 20
3 1 5 3 3 5 5 4 6 7 6 5 10 9 5 3 4 6 2 6 7 27 36 42 49 55 57 57 59 59 54 49 46 53 63 55 48 43 44 41 39 48 50 45 40 41 43 43 38 33 30 29 24 32
4 5 5 7 7 7 7 14 16 8 8 7 3 7 5 3 6 3 6 21 36 41 47 51 57 56 57 52 45 45 41 36 41 41 39 45 59 62 55 52 52 43 34 29 26 26 35 39 41 40 36 34 31 38
7 6 4 17 15 19 10 7 3 3 3 10 8 3 2 4 2 13 26 24 38 50 60 60 54 49 46 45 45 44 37 42 47 46 48 52 50 56 79 72 65 60 55 53 53 42 34 31 33 35 38 41 37 39
7 9 17 13 8 6 2 4 8 8 7 5 4 3 7 10 19 25 28 41 51 46 45 45 38 31 34 37 40 41 43 44 46 49 52 54 50 51 49 67 88 74 64 55 54 59 61 55 34 32 31 32 35 38
6 13 8 6 3 2 5 5 4 15 5 11 14 10 9 16 10 19 29 41 35 33 33 35 27 30 32 36 42 43 38 38 39 46 55 56 47 31 29 29 43 72 85 76 63 55 45 45 31 27 30 36 38 42
10 8 6 5 5 3 2 13 15 14 19 16 30 21 18 11 12 21 36 46 44 45 56 59 43 37 38 44 50 53 43 29 33 37 29 27 36 28 23 23 19 24 39 62 68 62 49 42 39 37 39 39 38 38
8 3 5 3 6 9 10 15 12 5 4 15 20 31 27 19 15 33 49 55 54 52 55 55 59 44 35 45 48 31 28 33 36 30 19 20 13 13 15 20 34 36 38 38 50 54 53 49 44 45 39 34 34 44
7 10 8 4 3 4 11 10 14 10 4 7 9 20 29 19 13 33 51 57 57 60 59 57 53 40 45 48 49 51 19 16 15 19 19 16 8 5 1 1 29 48 45 37 42 45 45 42 45 35 19 16 38 53
Wind_Direction_500mb
223 229 235 227 226 227 226 225 224 225 226 229 232 232 231 226 223 207 189 202 211 220 223 144 117 118 14 25 122 343 50 335 44 68 119 193 150 240 131 206 181 180 164 208 106 138 270 184 110 167 218 217 64 66
216 225 217 215 219 222 222 219 217 215 217 220 223 224 220 216 209 189 193 212 218 222 252 220 219 198 161 350 31 32 137 189 183 91 117 110 143 68 138 264 358 260 187 185 174 214 257 180 160 165 175 151 136 94
209 214 211 209 213 217 216 214 212 210 209 212 216 219 213 207 200 187 187 199 218 253 266 253 229 224 233 256 338 336 325 161 52 103 145 148 130 128 162 240 275 320 167 129 100 309 287 243 210 193 161 135 130 62
204 202 200 201 208 217 213 207 207 207 206 206 211 213 211 203 194 180 174 190 214 224 250 242 217 237 238 236 294 228 244 199 162 117 88 128 148 194 195 206 158 204 127 169 287 287 87 97 144 153 143 139 133 128
189 189 190 193 200 208 204 196 198 202 205 206 207 209 207 203 191 176 175 185 198 203 268 296 157 175 191 219 267 287 213 208 171 127 70 225 195 127 32 56 286 205 189 157 218 203 177 160 138 144 162 153 117 108
183 185 186 186 193 191 199 193 190 195 199 204 206 205 203 199 187 170 187 211 214 217 303 329 232 195 197 206 245 262 185 177 184 186 199 237 202 145 134 212 239 216 189 201 166 158 169 140 144 146 144 127 119 76
178 185 188 186 186 188 193 194 190 192 195 199 202 201 199 193 180 178 182 194 204 204 243 284 292 188 195 193 191 180 182 176 160 180 210 206 170 200 159 220 224 203 199 203 184 182 143 159 141 139 138 141 137 102
168 173 176 183 186 185 188 185 186 189 191 192 193 193 192 187 181 183 170 178 180 186 220 167 270 171 184 174 175 180 179 186 202 224 202 200 177 212 246 244 244 231 228 204 214 199 183 155 142 137 135 120 95 23
187 186 190 184 184 187 188 188 187 185 180 176 170 163 154 162 160 172 167 158 182 197 221 193 166 217 177 175 163 163 179 130 212 212 230 156 196 226 230 239 240 230 229 209 174 164 155 149 146 152 173 124 45 1
165 164 168 173 188 186 187 188 179 169 162 153 144 136 141 159 152 157 168 190 199 213 226 235 220 251 187 168 158 148 180 192 178 239 156 147 247 242 241 242 233 218 216 176 156 155 155 154 164 153 130 82 15 349
150 148 150 159 161 165 163 160 158 154 147 143 137 115 137 137 134 165 173 185 187 248 212 227 210 196 178 140 179 200 184 175 176 252 154 210 270 242 240 226 230 229 218 197 196 177 177 178 164 158 121 341 343 334
163 157 156 156 148 145 146 149 151 154 155 146 121 125 130 140 129 137 215 270 187 219 207 203 210 202 181 173 145 182 181 116 229 152 137 214 251 239 232 226 224 219 186 181 177 165 160 154 145 130 347 349 341 344
172 154 159 170 158 157 153 152 151 146 134 125 107 130 132 112 72 167 185 243 242 236 60 188 164 173 168 184 119 130 174 223 136 142 214 224 274 259 228 235 181 173 171 166 156 157 158 155 156 319 347 0 1 1
169 179 184 171 176 173 162 160 159 156 129 110 127 86 163 265 238 189 196 260 325 313 318 209 151 159 152 137 149 162 233 115 228 208 217 278 333 256 199 186 167 164 167 164 163 168 171 194 248 18 62 34 31 27
159 158 170 180 173 161 168 167 169 166 95 110 147 156 192 257 281 308 312 312 246 333 1 143 105 136 131 146 194 124 196 237 198 213 252 325 309 212 193 177 168 164 168 168 168 178 181 165 103 80 34 6 2 358
154 151 150 159 170 170 163 165 147 114 55 66 101 64 285 345 331 315 351 27 12 331 100 86 117 133 193 185 154 216 196 207 201 273 3 27 1 191 185 172 165 164 166 159 153 184 187 169 8 356 339 326 324 333
153 156 159 175 179 174 160 149 112 84 343 327 6 237 255 292 279 283 99 20 6 340 69 43 75 64 304 214 215 34 126 181 100 70 68 68 94 134 145 145 140 141 144 135 123 41 32 126 286 312 320 315 307 320
162 161 157 159 158 164 162 120 107 174 237 245 257 293 227 242 269 287 117 330 305 104 110 106 21 24 298 355 22 20 78 82 74 71 62 59 79 119 142 143 142 148 156 175 151 209 253 270 335 339 348 322 300 317
143 150 147 148 141 115 119 176 218 246 240 244 257 256 256 255 247 227 249 253 226 205 146 134 148 230 207 329 21 44 26 41 85 69 62 97 73 69 235 229 229 193 218 260 232 231 265 296 313 318 329 327 312 324
139 135 141 141 132 116 126 137 196 249 254 231 254 254 259 247 246 252 252 241 208 174 161 180 202 213 191 199 217 301 283 313 316 255 216 130 4 97 349 220 204 222 243 227 224 238 270 296 304 319 325 320 323 326
117 129 153 161 205 35 131 162 209 237 278 258 282 291 259 249 235 241 246 232 202 213 208 208 233 244 224 244 247 250 271 276 270 267 273 274 268 244 249 300 297 211 276 289 315 304 280 291 296 311 319 328 326 319
140 133 139 159 77 1 299 188 272 310 273 283 290 239 248 249 239 241 248 216 230 240 244 255 257 258 258 261 265 265 271 275 270 267 262 263 261 247 248 246 253 241 253 270 275 269 274 284 288 292 308 317 314 311
122 105 74 53 353 329 28 313 299 324 329 299 308 266 242 241 232 227 211 231 251 264 265 268 273 274 273 275 276 278 278 278 276 273 269 264 263 262 261 259 256 255 251 247 245 258 267 272 268 292 304 304 297 305
97 31 40 13 318 307 319 308 284 291 288 285 267 275 255 238 236 218 232 229 175 210 216 213 245 240 240 243 262 260 277 291 289 282 274 268 269 267 265 265 257 248 252 255 250 254 260 264 271 279 282 280 286 258
18 125 4 297 246 290 281 303 267 288 262 234 259 279 256 230 205 255 229 135 110 31 8 348 337 329 317 302 296 289 287 291 288 278 269 269 261 260 259 258 258 250 254 256 250 251 259 260 264 265 272 260 258 200
47 225 194 253 218 195 230 220 216 230 232 241 231 253 266 202 220 246 120 143 338 337 330 323 315 312 304 301 297 292 291 285 283 276 265 252 249 252 249 246 254 250 248 242 241 244 254 256 257 265 273 260 236 207
341 284 248 256 265 266 276 261 255 217 235 224 269 337 358 268 242 96 35 333 324 319 317 311 306 302 297 295 293 289 284 277 276 284 291 277 252 243 242 241 236 232 230 225 227 240 250 257 260 263 266 256 242 220
265 289 256 310 292 264 223 254 273 353 40 347 320 342 245 243 304 357 332 322 314 309 308 308 308 304 294 289 288 285 276 271 275 278 280 280 279 264 239 232 233 231 227 230 230 233 247 263 261 263 262 258 246 224
261 283 313 277 288 280 310 49 37 2 332 345 307 297 316 317 330 334 328 323 318 319 317 316 319 316 306 298 291 288 283 278 276 275 274 274 276 276 267 245 231 228 230 233 233 233 246 255 263 255 248 246 234 220
262 320 291 290 284 309 56 43 27 44 30 357 338 293 290 328 323 337 338 345 354 358 358 354 347 344 334 326 321 316 302 281 270 271 269 264 269 293 283 247 235 235 236 238 234 227 233 242 240 220 220 214 214 211
287 296 283 273 302 20 332 36 110 80 50 19 28 17 2 341 339 352 357 8 11 10 4 5 4 4 347 339 334 324 312 296 266 269 269 259 266 269 225 209 212 214 213 219 219 218 232 225 222 230 225 210 214 219
258 259 314 274 271 279 312 172 161 138 35 13 17 20 14 9 347 357 10 16 17 14 13 11 5 7 4 1 350 331 297 276 267 270 278 271 260 244 233 233 223 207 190 186 196 206 208 211 218 216 211 215 217 207
279 292 290 286 287 272 174 181 195 188 162 6 11 21 18 6 356 354 12 20 13 8 9 12 24 23 11 18 14 12 1 305 291 241 199 215 207 211 295 37 182 188 190 186 186 190 200 209 211 189 157 217 206 196
Wind_Speed_850mb
54 52 54 44 43 44 44 43 43 40 36 34 32 28 23 19 18 17 21 20 17 9 8 3 4 3 3 5 5 7 5 5 8 8 6 6 5 6 2 7 11 14 11 7 5 4 11 12 11 11 10 4 2 3
49 42 38 39 40 40 41 41 40 38 35 33 31 27 23 20 17 21 24 22 17 13 12 15 11 7 3 5 6 7 4 1 2 8 1 6 3 4 6 5 4 4 11 9 15 11 5 22 8 14 6 7 4 9
44 38 36 34 32 33 37 38 38 38 35 32 29 26 23 20 19 26 21 22 16 15 29 36 25 15 8 7 3 1 1 1 1 3 9 4 5 7 6 9 3 7 7 4 3 4 9 11 14 11 10 7 10 6
40 37 35 32 29 28 32 35 36 36 34 31 29 26 23 22 21 26 21 20 22 7 5 3 25 31 22 14 4 2 10 5 5 2 4 4 5 11 8 6 7 7 1 5 2 5 11 15 13 16 11 7 5 3
38 35 31 29 26 24 25 28 34 34 32 30 28 26 24 23 23 27 21 19 17 7 5 8 8 20 22 11 7 6 11 15 6 1 4 5 4 6 5 4 4 11 11 8 11 13 9 14 15 12 8 5 9 3
39 35 31 27 22 21 19 24 31 31 29 28 26 25 24 23 23 28 11 20 17 10 7 3 5 15 25 19 10 6 6 7 9 7 5 6 3 3 5 8 16 17 9 12 10 18 12 13 14 14 13 11 8 5
38 33 33 28 23 21 18 21 26 27 28 26 25 24 23 23 28 23 7 11 30 17 6 6 7 14 29 22 10 11 12 5 4 7 8 5 6 9 5 10 10 30 15 19 23 26 19 21 20 23 18 13 7 4
41 34 31 27 23 19 15 19 21 23 26 24 23 21 20 21 25 20 8 9 21 18 8 3 8 7 31 12 10 12 11 13 8 5 5 8 7 7 6 21 31 45 21 28 32 35 28 33 27 20 13 8 2 8
36 49 30 26 24 20 17 17 19 21 22 21 20 18 16 17 14 22 14 11 19 9 5 5 8 8 26 14 10 13 11 2 5 7 8 13 2 8 17 27 29 33 42 35 34 37 40 33 26 17 9 5 4 10
31 36 40 27 22 21 21 21 20 21 23 25 29 9 9 19 21 24 11 7 10 11 8 8 6 5 14 16 12 11 6 6 4 9 14 5 8 34 23 23 10 18 28 45 50 39 37 32 24 18 9 7 8 17
29 35 29 25 23 22 22 22 22 25 31 26 9 6 23 29 18 10 6 6 8 4 11 12 19 5 9 7 8 15 7 6 5 8 10 4 7 17 33 46 34 16 14 43 42 38 32 27 25 14 3 8 19 30
25 29 30 23 21 22 22 23 28 32 16 17 21 25 21 7 5 6 4 3 6 10 11 11 18 23 7 9 6 10 7 3 11 10 6 5 10 29 12 18 32 32 45 44 45 43 36 25 13 1 10 21 28 29
28 35 30 24 18 19 22 25 29 25 33 22 9 8 5 3 6 10 10 6 4 4 0 9 5 17 10 9 5 4 7 10 5 3 8 9 9 8 20 22 31 51 57 53 47 37 27 17 5 9 17 21 23 27
24 27 28 24 24 21 20 26 26 30 9 6 6 3 5 2 6 7 4 1 9 11 16 17 13 9 7 6 6 7 8 3 4 2 10 4 13 8 16 30 60 65 61 53 43 33 21 9 1 7 12 27 24 31
22 28 31 33 27 22 21 27 25 19 5 5 4 6 5 4 6 11 17 14 8 14 6 9 10 6 3 5 6 2 4 9 10 8 4 21 11 14 35 58 67 62 54 47 36 24 17 8 5 6 9 15 18 27
34 34 36 32 27 23 25 24 16 11 6 4 3 3 4 5 10 6 7 7 8 8 3 4 4 4 5 5 6 11 5 8 3 4 13 16 5 24 40 52 55 50 41 30 18 12 8 4 2 9 12 16 22 27
31 25 26 25 24 28 25 24 11 6 2 2 3 7 12 8 10 9 3 10 11 5 4 5 3 2 8 3 5 5 3 4 7 11 14 21 27 39 47 43 37 27 25 26 17 3 1 4 4 15 18 12 20 26
19 27 24 23 27 29 26 10 7 8 5 7 5 4 11 14 13 5 6 7 7 4 3 4 7 6 3 4 4 2 9 10 11 13 17 15 8 19 28 32 31 26 14 11 10 12 10 4 12 11 11 12 18 26
27 29 23 46 36 16 9 13 5 4 12 7 12 16 16 15 15 20 15 13 14 9 19 12 5 4 3 2 5 10 8 5 4 10 7 5 8 4 12 23 27 16 7 19 15 18 13 11 16 12 13 15 22 31
32 32 34 32 19 5 7 7 9 6 6 5 10 13 10 9 13 18 16 17 24 16 9 7 10 13 20 21 14 2 17 16 12 6 7 4 5 4 4 21 19 4 10 16 16 15 15 17 19 14 21 25 32 40
25 28 28 29 5 3 4 6 9 6 5 6 8 7 7 14 20 20 19 19 24 10 11 17 22 21 21 25 27 27 31 38 32 29 27 19 22 16 8 13 11 31 17 19 15 22 20 17 17 26 30 34 37 39
24 23 17 6 1 2 2 3 4 10 6 8 9 8 10 7 9 20 21 19 22 39 37 40 44 47 49 50 48 48 45 41 41 41 40 39 39 40 42 38 35 35 32 29 34 27 22 25 28 30 28 31 34 31
15 7 4 4 3 2 2 2 3 4 2 7 11 5 6 7 9 13 10 15 25 32 36 42 45 48 49 48 44 41 39 42 45 46 45 45 48 47 48 48 47 49 50 48 42 45 42 35 23 24 26 27 25 22
4 4 3 3 2 4 3 3 3 4 6 5 3 6 5 8 5 8 6 5 5 9 14 11 7 14 14 14 13 15 11 16 21 30 39 42 47 49 49 49 49 48 43 39 39 35 34 28 25 25 24 22 18 11
4 1 1 3 2 2 2 3 3 2 5 5 3 6 8 6 1 4 3 6 10 16 18 18 24 32 34 38 37 40 44 51 51 50 43 30 32 39 46 48 48 53 50 46 43 41 40 34 33 29 25 23 17 20
3 1 5 3 3 5 5 4 6 7 6 5 10 9 5 3 4 6 2 6 7 27 36 42 49 55 57 57 59 59 54 49 46 53 63 55 48 43 44 41 39 48 50 45 40 41 43 43 38 33 30 29 24 32
4 5 5 7 7 7 7 14 16 8 8 7 3 7 5 3 6 3 6 21 36 41 47 51 57 56 57 52 45 45 41 36 41 41 39 45 59 62 55 52 52 43 34 29 26 26 35 39 41 40 36 34 31 38
7 6 4 17 15 19 10 7 3 3 3 10 8 3 2 4 2 13 26 24 38 50 60 60 54 49 46 45 45 44 37 42 47 46 48 52 50 56 79 72 65 60 55 53 53 42 34 31 33 35 38 41 37 39
7 9 17 13 8 6 2 4 8 8 7 5 4 3 7 10 19 25 28 41 51 46 45 45 38 31 34 37 40 41 43 44 46 49 52 54 50 51 49 67 88 74 64 55 54 59 61 55 34 32 31 32 35 38
6 13 8 6 3 2 5 5 4 15 5 11 14 10 9 16 10 19 29 41 35 33 33 35 27 30 32 36 42 43 38 38 39 46 55 56 47 31 29 29 43 72 85 76 63 55 45 45 31 27 30 36 38 42
10 8 6 5 5 3 2 13 15 14 19 16 30 21 18 11 12 21 36 46 44 45 56 59 43 37 38 44 50 53 43 29 33 37 29 27 36 28 23 23 19 24 39 62 68 62 49 42 39 37 39 39 38 38
8 3 5 3 6 9 10 15 12 5 4 15 20 31 27 19 15 33 49 55 54 52 55 55 59 44 35 45 48 31 28 33 36 30 19 20 13 13 15 20 34 36 38 38 50 54 53 49 44 45 39 34 34 44
7 10 8 4 3 4 11 10 14 10 4 7 9 20 29 19 13 33 51 57 57 60 59 57 53 40 45 48 49 51 19 16 15 19 19 16 8 5 1 1 29 48 45 37 42 45 45 42 45 35 19 16 38 53
Wind_Direction_850mb
223 229 235 227 226 227 226 225 224 225 226 229 232 232 231 226 223 207 189 202 211 220 223 144 117 118 14 25 122 343 50 335 44 68 119 193 150 240 131 206 181 180 164 208 106 138 270 184 110 167 218 217 64 66
216 225 217 215 219 222 222 219 217 215 217 220 223 224 220 216 209 189 193 212 218 222 252 220 219 198 161 350 31 32 137 189 183 91 117 110 143 68 138 264 358 260 187 185 174 214 257 180 160 165 175 151 136 94
209 214 211 209 213 217 216 214 212 210 209 212 216 219 213 207 200 187 187 199 218 253 266 253 229 224 233 256 338 336 325 161 52 103 145 148 130 128 162 240 275 320 167 129 100 309 287 243 210 193 161 135 130 62
204 202 200 201 208 217 213 207 207 207 206 206 211 213 211 203 194 180 174 190 214 224 250 242 217 237 238 236 294 228 244 199 162 117 88 128 148 194 195 206 158 204 127 169 287 287 87 97 144 153 143 139 133 128
189 189 190 193 200 208 204 196 198 202 205 206 207 209 207 203 191 176 175 185 198 203 268 296 157 175 191 219 267 287 213 208 171 127 70 225 195 127 32 56 286 205 189 157 218 203 177 160 138 144 162 153 117 108
183 185 186 186 193 191 199 193 190 195 199 204 206 205 203 199 187 170 187 211 214 217 303 329 232 195 197 206 245 262 185 177 184 186 199 237 202 145 134 212 239 216 189 201 166 158 169 140 144 146 144 127 119 76
178 185 188 186 186 188 193 194 190 192 195 199 202 201 199 193 180 178 182 194 204 204 243 284 292 188 195 193 191 180 182 176 160 180 210 206 170 200 159 220 224 203 199 203 184 182 143 159 141 139 138 141 137 102
168 173 176 183 186 185 188 185 186 189 191 192 193 193 192 187 181 183 170 178 180 186 220 167 270 171 184 174 175 180 179 186 202 224 202 200 177 212 246 244 244 231 228 204 214 199 183 155 142 137 135 120 95 23
187 186 190 184 184 187 188 188 187 185 180 176 170 163 154 162 160 172 167 158 182 197 221 193 166 217 177 175 163 163 179 130 212 212 230 156 196 226 230 239 240 230 229 209 174 164 155 149 146 152 173 124 45 1
165 164 168 173 188 186 187 188 179 169 162 153 144 136 141 159 152 157 168 190 199 213 226 235 220 251 187 168 158 148 180 192 178 239 156 147 247 242 241 242 233 218 216 176 156 155 155 154 164 153 130 82 15 349
150 148 150 159 161 165 163 160 158 154 147 143 137 115 137 137 134 165 173 185 187 248 212 227 210 196 178 140 179 200 184 175 176 252 154 210 270 242 240 226 230 229 218 197 196 177 177 178 164 158 121 341 343 334
163 157 156 156 148 145 146 149 151 154 155 146 121 125 130 140 129 137 215 270 187 219 207 203 210 202 181 173 145 182 181 116 229 152 137 214 251 239 232 226 224 219 186 181 177 165 160 154 145 130 347 349 341 344
172 154 159 170 158 157 153 152 151 146 134 125 107 130 132 112 72 167 185 243 242 236 60 188 164 173 168 184 119 130 174 223 136 142 214 224 274 259 228 235 181 173 171 166 156 157 158 155 156 319 347 0 1 1
169 179 184 171 176 173 162 160 159 156 129 110 127 86 163 265 238 189 196 260 325 313 318 209 151 159 152 137 149 162 233 115 228 208 217 278 333 256 199 186 167 164 167 164 163 168 171 194 248 18 62 34 31 27
159 158 170 180 173 161 168 167 169 166 95 110 147 156 192 257 281 308 312 312 246 333 1 143 105 136 131 146 194 124 196 237 198 213 252 325 309 212 193 177 168 164 168 168 168 178 181 165 103 80 34 6 2 358
154 151 150 159 170 170 163 165 147 114 55 66 101 64 285 345 331 315 351 27 12 331 100 86 117 133 193 185 154 216 196 207 201 273 3 27 1 191 185 172 165 164 166 159 153 184 187 169 8 356 339 326 324 333
153 156 159 175 179 174 160 149 112 84 343 327 6 237 255 292 279 283 99 20 6 340 69 43 75 64 304 214 215 34 126 181 100 70 68 68 94 134 145 145 140 141 144 135 123 41 32 126 286 312 320 315 307 320
162 161 157 159 158 164 162 120 107 174 237 245 257 293 227 242 269 287 117 330 305 104 110 106 21 24 298 355 22 20 78 82 74 71 62 59 79 119 142 143 142 148 156 175 151 209 253 270 335 339 348 322 300 317
143 150 147 148 141 115 119 176 218 246 240 244 257 256 256 255 247 227 249 253 226 205 146 134 148 230 207 329 21 44 26 41 85 69 62 97 73 69 235 229 229 193 218 260 232 231 265 296 313 318 329 327 312 324
139 135 141 141 132 116 126 137 196 249 254 231 254 254 259 247 246 252 252 241 208 174 161 180 202 213 191 199 217 301 283 313 316 255 216 130 4 97 349 220 204 222 243 227 224 238 270 296 304 319 325 320 323 326
117 129 153 161 205 35 131 162 209 237 278 258 282 291 259 249 235 241 246 232 202 213 208 208 233 244 224 244 247 250 271 276 270 267 273 274 268 244 249 300 297 211 276 289 315 304 280 291 296 311 319 328 326 319
140 133 139 159 77 1 299 188 272 310 273 283 290 239 248 249 239 241 248 216 230 240 244 255 257 258 258 261 265 265 271 275 270 267 262 263 261 247 248 246 253 241 253 270 275 269 274 284 288 292 308 317 314 311
122 105 74 53 353 329 28 313 299 324 329 299 308 266 242 241 232 227 211 231 251 264 265 268 273 274 273 275 276 278 278 278 276 273 269 264 263 262 261 259 256 255 251 247 245 258 267 272 268 292 304 304 297 305
97 31 40 13 318 307 319 308 284 291 288 285 267 275 255 238 236 218 232 229 175 210 216 213 245 240 240 243 262 260 277 291 289 282 274 268 269 267 265 265 257 248 252 255 250 254 260 264 271 279 282 280 286 258
18 125 4 297 246 290 281 303 267 288 262 234 259 279 256 230 205 255 229 135 110 31 8 348 337 329 317 302 296 289 287 291 288 278 269 269 261 260 259 258 258 250 254 256 250 251 259 260 264 265 272 260 258 200
47 225 194 253 218 195 230 220 216 230 232 241 231 253 266 202 220 246 120 143 338 337 330 323 315 312 304 301 297 292 291 285 283 276 265 252 249 252 249 246 254 250 248 242 241 244 254 256 257 265 273 260 236 207
341 284 248 256 265 266 276 261 255 217 235 224 269 337 358 268 242 96 35 333 324 319 317 311 306 302 297 295 293 289 284 277 276 284 291 277 252 243 242 241 236 232 230 225 227 240 250 257 260 263 266 256 242 220
265 289 256 310 292 264 223 254 273 353 40 347 320 342 245 243 304 357 332 322 314 309 308 308 308 304 294 289 288 285 276 271 275 278 280 280 279 264 239 232 233 231 227 230 230 233 247 263 261 263 262 258 246 224
261 283 313 277 288 280 310 49 37 2 332 345 307 297 316 317 330 334 328 323 318 319 317 316 319 316 306 298 291 288 283 278 276 275 274 274 276 276 267 245 231 228 230 233 233 233 246 255 263 255 248 246 234 220
262 320 291 290 284 309 56 43 27 44 30 357 338 293 290 328 323 337 338 345 354 358 358 354 347 344 334 326 321 316 302 281 270 271 269 264 269 293 283 247 235 235 236 238 234 227 233 242 240 220 220 214 214 211
287 296 283 273 302 20 332 36 110 80 50 19 28 17 2 341 339 352 357 8 11 10 4 5 4 4 347 339 334 324 312 296 266 269 269 259 266 269 225 209 212 214 213 219 219 218 232 225 222 230 225 210 214 219
258 259 314 274 271 279 312 172 161 138 35 13 17 20 14 9 347 357 10 16 17 14 13 11 5 7 4 1 350 331 297 276 267 270 278 271 260 244 233 233 223 207 190 186 196 206 208 211 218 216 211 215 217 207
279 292 290 286 287 272 174 181 195 188 162 6 11 21 18 6 356 354 12 20 13 8 9 12 24 23 11 18 14 12 1 305 291 241 199 215 207 211 295 37 182 188 190 186 186 190 200 209 211 189 157 217 206 196